FW7740 Weather Reports


Display with metric or nautical units.
time (UTC)temp
F
wind
direction
speed
MPH
gust
MPH
rain 1hr
in
rain 24hr
in
rain mn
in
humidity
%
barometer
mb
20260831025337 76 299 0.0 0.0 0.00 0.00 0.00 72 1016.3
20260831024832 76 299 0.0 0.0 0.00 0.00 0.00 72 1015.9
20260831024331 76 299 0.0 0.0 0.00 0.00 0.00 72 1015.9
20260831023826 76 299 0.0 0.0 0.00 0.00 0.00 72 1015.9
20260831023324 76 299 0.0 0.0 0.00 0.00 0.00 71 1015.9
20260831022820 76 299 0.0 0.0 0.00 0.00 0.00 71 1016.3
20260831022318 77 299 0.0 0.0 0.00 0.00 0.00 71 1016.3
20260831021813 77 299 0.0 0.0 0.00 0.00 0.00 70 1015.9
20260831021308 77 299 0.0 0.0 0.00 0.00 0.00 70 1015.6
20260831020804 77 299 0.0 0.0 0.00 0.00 0.00 70 1015.9
20260831020302 77 299 0.0 0.0 0.00 0.00 0.00 69 1015.6
20260831015758 78 299 0.0 0.0 0.00 0.00 0.00 69 1015.9
20260831015254 78 299 0.0 0.0 0.00 0.00 0.00 68 1015.6
20260831014748 78 299 0.0 0.0 0.00 0.00 0.00 68 1015.6
20260831014243 78 299 0.0 0.0 0.00 0.00 0.00 67 1015.6
20260831013739 79 299 0.0 0.0 0.00 0.00 0.00 67 1015.6
20260831013238 79 299 0.0 0.0 0.00 0.00 0.00 66 1015.3
20260831012733 79 299 0.0 0.0 0.00 0.00 0.00 65 1015.3
20260831012229 80 299 0.0 0.0 0.00 0.00 0.00 64 1015.6
20260831011728 80 299 0.0 0.0 0.00 0.00 0.00 63 1014.9
20260831011224 81 299 0.0 0.0 0.00 0.00 0.00 63 1014.9
20260831010720 81 299 0.0 0.0 0.00 0.00 0.00 61 1014.9
20260831010214 82 299 0.0 0.0 0.00 0.00 0.00 59 1014.9
20260831005709 83 299 0.0 0.0 0.00 0.00 0.00 59 1015.3
20260831005204 83 299 0.0 0.0 0.00 0.00 0.00 57 1014.9
20260831004659 84 299 0.0 0.0 0.00 0.00 0.00 55 1014.9
20260831004155 85 300 0.0 0.0 0.00 0.00 0.00 53 1014.9
20260831003651 85 300 0.0 0.0 0.00 0.00 0.00 52 1015.3
20260831003147 86 300 0.0 0.0 0.00 0.00 0.00 50 1015.3
20260831002645 87 300 0.0 0.0 0.00 0.00 0.00 49 1014.9
20260831002141 87 300 0.0 0.0 0.00 0.00 0.00 47 1015.3
20260831001637 88 300 0.0 0.0 0.00 0.00 0.00 46 1015.3
20260831001132 89 300 0.0 0.0 0.00 0.00 0.00 44 1015.3
20260831000629 89 300 0.0 0.0 0.00 0.00 0.00 43 1015.3
20260831000129 90 300 0.0 0.0 0.00 0.00 0.00 42 1015.3
20260830235627 91 300 0.0 0.0 0.00 0.00 0.00 41 1015.3
20260830235122 91 300 0.0 0.0 0.00 0.00 0.00 40 1015.3
20260830234617 92 317 0.0 0.0 0.00 0.00 0.00 39 1015.3
20260830234113 92 318 0.0 0.0 0.00 0.00 0.00 39 1015.3
20260830233608 92 312 0.0 0.0 0.00 0.00 0.00 38 1015.3
20260830233104 93 98 2.0 5.0 0.00 0.00 0.00 37 1015.3
20260830232600 94 301 0.0 0.0 0.00 0.00 0.00 36 1015.6
20260830232056 94 306 0.0 0.0 0.00 0.00 0.00 35 1015.3
20260830231551 94 323 1.0 1.0 0.00 0.00 0.00 34 1015.3
20260830231050 95 319 1.0 1.0 0.00 0.00 0.00 34 1015.3
20260830230545 95 300 3.0 3.0 0.00 0.00 0.00 33 1015.3
20260830230040 95 310 0.0 0.0 0.00 0.00 0.00 33 1015.3
20260830225535 95 311 2.0 2.0 0.00 0.00 0.00 33 1015.3
20260830225030 95 171 1.0 2.0 0.00 0.00 0.00 32 1015.3
20260830224528 95 333 1.0 1.0 0.00 0.00 0.00 33 1015.6
20260830224025 95 278 2.0 2.0 0.00 0.00 0.00 31 1015.3
20260830223522 95 290 1.0 1.0 0.00 0.00 0.00 32 1015.3
20260830223021 95 270 4.0 5.0 0.00 0.00 0.00 32 1015.3
20260830222515 96 319 0.0 0.0 0.00 0.00 0.00 32 1015.3
20260830222011 96 286 3.0 5.0 0.00 0.00 0.00 31 1015.3
20260830221508 96 295 1.0 1.0 0.00 0.00 0.00 31 1015.3
20260830220958 96 156 5.0 7.0 0.00 0.00 0.00 32 1015.3
20260830220457 96 313 1.0 1.0 0.00 0.00 0.00 35 1015.3
20260830215954 96 157 3.0 5.0 0.00 0.00 0.00 33 1015.6
20260830215450 97 301 1.0 1.0 0.00 0.00 0.00 34 1015.6
20260830214949 97 301 1.0 2.0 0.00 0.00 0.00 33 1015.3
20260830214445 97 142 2.0 3.0 0.00 0.00 0.00 32 1015.6
20260830213940 98 283 2.0 2.0 0.00 0.00 0.00 33 1015.6
20260830213435 98 305 1.0 1.0 0.00 0.00 0.00 33 1015.6
20260830212931 99 309 0.0 1.0 0.00 0.00 0.00 33 1015.6
20260830212427 98 316 1.0 1.0 0.00 0.00 0.00 33 1015.6
20260830211926 98 167 4.0 5.0 0.00 0.00 0.00 32 1015.3
20260830211421 98 142 7.0 9.0 0.00 0.00 0.00 34 1015.6
20260830210916 98 312 2.0 2.0 0.00 0.00 0.00 34 1015.6
20260830210415 99 287 1.0 2.0 0.00 0.00 0.00 33 1015.6
20260830205912 99 302 1.0 1.0 0.00 0.00 0.00 33 1015.9
20260830205412 99 260 4.0 6.0 0.00 0.00 0.00 33 1015.9
20260830204908 99 190 4.0 5.0 0.00 0.00 0.00 33 1015.9
20260830204406 99 306 1.0 2.0 0.00 0.00 0.00 33 1015.6
20260830203901 99 323 0.0 0.0 0.00 0.00 0.00 32 1015.9
20260830203358 98 318 1.0 1.0 0.00 0.00 0.00 34 1015.9
20260830202857 98 206 3.0 3.0 0.00 0.00 0.00 33 1015.9
20260830202353 98 317 1.0 1.0 0.00 0.00 0.00 34 1015.9
20260830201848 98 312 0.0 0.0 0.00 0.00 0.00 33 1016.3
20260830201342 99 305 0.0 0.0 0.00 0.00 0.00 34 1015.9
20260830200837 99 313 0.0 0.0 0.00 0.00 0.00 33 1016.3
20260830200337 100 277 3.0 3.0 0.00 0.00 0.00 32 1015.9
20260830195832 99 321 0.0 0.0 0.00 0.00 0.00 32 1016.3
20260830195326 100 196 3.0 3.0 0.00 0.00 0.00 32 1015.9
20260830194825 99 240 1.0 2.0 0.00 0.00 0.00 33 1015.9
20260830194318 98 104 2.0 2.0 0.00 0.00 0.00 35 1016.3
20260830193813 98 151 6.0 7.0 0.00 0.00 0.00 33 1016.3
20260830193307 99 177 4.0 6.0 0.00 0.00 0.00 32 1016.6
20260830192803 99 47 3.0 3.0 0.00 0.00 0.00 33 1016.6
20260830192257 99 339 1.0 1.0 0.00 0.00 0.00 33 1016.6
20260830191753 99 153 3.0 3.0 0.00 0.00 0.00 33 1016.6
20260830191253 98 186 1.0 1.0 0.00 0.00 0.00 34 1017.0
20260830190749 97 353 2.0 2.0 0.00 0.00 0.00 34 1016.6
20260830190244 98 160 5.0 6.0 0.00 0.00 0.00 34 1017.0
20260830185742 98 274 1.0 2.0 0.00 0.00 0.00 33 1017.0
20260830185238 99 121 3.0 3.0 0.00 0.00 0.00 33 1016.6
20260830184737 98 305 1.0 1.0 0.00 0.00 0.00 34 1017.0
20260830184236 97 14 3.0 3.0 0.00 0.00 0.00 34 1017.0
20260830183732 97 149 3.0 5.0 0.00 0.00 0.00 34 1017.3
20260830183226 98 219 3.0 3.0 0.00 0.00 0.00 33 1017.3
20260830182721 98 77 3.0 3.0 0.00 0.00 0.00 33 1017.0
20260830182218 97 294 2.0 2.0 0.00 0.00 0.00 34 1017.0
20260830181714 97 138 3.0 5.0 0.00 0.00 0.00 34 1017.3
20260830181214 97 148 6.0 8.0 0.00 0.00 0.00 33 1017.0
20260830180713 96 168 6.0 6.0 0.00 0.00 0.00 34 1017.3
20260830180208 95 94 2.0 3.0 0.00 0.00 0.00 34 1017.3
20260830175707 96 154 7.0 9.0 0.00 0.00 0.00 34 1017.3
20260830175202 96 197 5.0 6.0 0.00 0.00 0.00 34 1017.3
20260830174657 96 224 5.0 9.0 0.00 0.00 0.00 33 1017.3
20260830174153 95 145 2.0 2.0 0.00 0.00 0.00 34 1017.3
20260830173648 96 284 3.0 3.0 0.00 0.00 0.00 33 1017.3
20260830173143 96 146 5.0 5.0 0.00 0.00 0.00 33 1017.6
20260830172640 96 197 3.0 2.0 0.00 0.00 0.00 33 1017.6
20260830172136 96 281 5.0 7.0 0.00 0.00 0.00 34 1018.1
20260830171630 95 4 1.0 1.0 0.00 0.00 0.00 34 1018.1
20260830171125 94 178 6.0 8.0 0.00 0.00 0.00 36 1018.4
20260830170625 94 123 4.0 5.0 0.00 0.00 0.00 36 1018.4
20260830170124 94 224 5.0 6.0 0.00 0.00 0.00 35 1018.4
20260830165619 93 153 4.0 5.0 0.00 0.00 0.00 36 1018.4
20260830165115 93 170 7.0 8.0 0.00 0.00 0.00 35 1018.8
20260830164611 93 168 4.0 5.0 0.00 0.00 0.00 36 1018.8
20260830164107 93 92 4.0 5.0 0.00 0.00 0.00 36 1018.8
20260830163604 93 88 3.0 5.0 0.00 0.00 0.00 37 1018.8
20260830163103 92 118 2.0 3.0 0.00 0.00 0.00 36 1018.8
20260830162558 93 166 4.0 6.0 0.00 0.00 0.00 35 1018.8
20260830162054 92 152 3.0 5.0 0.00 0.00 0.00 36 1018.8
20260830161548 92 260 2.0 2.0 0.00 0.00 0.00 37 1018.8
20260830161043 92 129 3.0 6.0 0.00 0.00 0.00 37 1018.8
20260830160539 91 319 0.0 1.0 0.00 0.00 0.00 38 1018.4
20260830160034 90 157 7.0 7.0 0.00 0.00 0.00 39 1018.4
20260830155525 90 24 5.0 7.0 0.00 0.00 0.00 39 1018.4
20260830155021 90 208 6.0 7.0 0.00 0.00 0.00 39 1018.4
20260830154515 90 229 5.0 7.0 0.00 0.00 0.00 39 1018.8
20260830154006 89 154 4.0 6.0 0.00 0.00 0.00 39 1018.8
20260830153502 89 183 4.0 5.0 0.00 0.00 0.00 40 1018.4
20260830153001 89 247 1.0 1.0 0.00 0.00 0.00 40 1018.4
20260830152456 89 178 3.0 3.0 0.00 0.00 0.00 40 1018.4
20260830151954 88 143 7.0 8.0 0.00 0.00 0.00 41 1018.4
20260830151449 89 20 2.0 2.0 0.00 0.00 0.00 41 1018.4
20260830150944 89 118 4.0 5.0 0.00 0.00 0.00 41 1018.4
20260830150443 88 322 4.0 6.0 0.00 0.00 0.00 42 1018.1
20260830145938 87 323 0.0 1.0 0.00 0.00 0.00 44 1018.1
20260830145432 86 163 3.0 3.0 0.00 0.00 0.00 44 1018.4
20260830144928 85 179 3.0 3.0 0.00 0.00 0.00 46 1018.1
20260830144425 84 130 4.0 5.0 0.00 0.00 0.00 47 1018.1
20260830143925 84 139 3.0 3.0 0.00 0.00 0.00 48 1018.1
20260830143420 84 157 3.0 6.0 0.00 0.00 0.00 46 1018.1
20260830142918 83 193 3.0 3.0 0.00 0.00 0.00 49 1018.1
20260830142414 84 141 2.0 2.0 0.00 0.00 0.00 49 1018.1
20260830141908 83 277 0.0 0.0 0.00 0.00 0.00 48 1018.1
20260830141404 82 252 3.0 3.0 0.00 0.00 0.00 52 1018.1
20260830140859 82 254 2.0 2.0 0.00 0.00 0.00 53 1018.1
20260830140354 81 222 5.0 6.0 0.00 0.00 0.00 52 1018.1
20260830135848 80 16 2.0 2.0 0.00 0.00 0.00 58 1018.1
20260830135344 80 293 1.0 1.0 0.00 0.00 0.00 60 1018.1
20260830134839 79 294 0.0 0.0 0.00 0.00 0.00 61 1018.4
20260830134334 78 294 1.0 1.0 0.00 0.00 0.00 63 1018.1
20260830133830 77 294 0.0 0.0 0.00 0.00 0.00 64 1018.1
20260830133325 76 294 0.0 0.0 0.00 0.00 0.00 67 1018.4
20260830132820 74 294 0.0 0.0 0.00 0.00 0.00 69 1018.4
20260830132316 73 294 0.0 0.0 0.00 0.00 0.00 70 1018.1
20260830131815 72 294 0.0 0.0 0.00 0.00 0.00 73 1018.4
20260830131309 71 295 0.0 0.0 0.00 0.00 0.00 75 1018.4
20260830130805 70 295 0.0 0.0 0.00 0.00 0.00 76 1018.4
20260830130300 70 295 0.0 0.0 0.00 0.00 0.00 76 1018.1
20260830125759 70 295 0.0 0.0 0.00 0.00 0.00 76 1018.1
20260830125255 69 295 0.0 0.0 0.00 0.00 0.00 77 1018.4
20260830124752 68 295 0.0 0.0 0.00 0.00 0.00 79 1018.4
20260830124247 67 295 0.0 0.0 0.00 0.00 0.00 80 1018.4
20260830123744 65 295 0.0 0.0 0.00 0.00 0.00 84 1018.4
20260830123240 64 295 0.0 0.0 0.00 0.00 0.00 88 1018.1
20260830122737 64 295 0.0 0.0 0.00 0.00 0.00 89 1018.4
20260830122232 63 295 0.0 0.0 0.00 0.00 0.00 90 1018.1
20260830121727 63 295 0.0 0.0 0.00 0.00 0.00 91 1018.1
20260830121226 63 295 0.0 0.0 0.00 0.00 0.00 91 1018.4
20260830120721 63 295 0.0 0.0 0.00 0.00 0.00 91 1018.1
20260830120218 62 295 0.0 0.0 0.00 0.00 0.00 91 1018.4
20260830115714 62 295 0.0 0.0 0.00 0.00 0.00 91 1018.4
20260830115210 62 295 0.0 0.0 0.00 0.00 0.00 91 1018.1
20260830114706 62 295 0.0 0.0 0.00 0.00 0.00 91 1018.4
20260830114206 62 295 0.0 0.0 0.00 0.00 0.00 91 1018.1
20260830113702 62 295 0.0 0.0 0.00 0.00 0.00 91 1018.1
20260830113201 62 295 0.0 0.0 0.00 0.00 0.00 91 1018.1
20260830112658 62 295 0.0 0.0 0.00 0.00 0.00 90 1018.1
20260830112154 63 295 0.0 0.0 0.00 0.00 0.00 90 1018.4
20260830111649 63 295 0.0 0.0 0.00 0.00 0.00 90 1018.1
20260830111145 63 295 0.0 0.0 0.00 0.00 0.00 90 1018.4
20260830110640 63 295 0.0 0.0 0.00 0.00 0.00 90 1018.1
20260830110136 63 295 0.0 0.0 0.00 0.00 0.00 90 1018.4
20260830105635 63 295 0.0 0.0 0.00 0.00 0.00 90 1018.1
20260830105131 63 295 0.0 0.0 0.00 0.00 0.00 90 1018.1
20260830104628 63 295 0.0 0.0 0.00 0.00 0.00 90 1018.1
20260830104125 63 295 0.0 0.0 0.00 0.00 0.00 90 1018.1
20260830103623 63 295 0.0 0.0 0.00 0.00 0.00 90 1018.1
20260830103118 63 295 0.0 0.0 0.00 0.00 0.00 90 1017.6
20260830102612 63 295 0.0 0.0 0.00 0.00 0.00 90 1018.1
20260830102108 63 295 0.0 0.0 0.00 0.00 0.00 89 1018.1
20260830101603 63 295 0.0 0.0 0.00 0.00 0.00 89 1017.6
20260830101058 63 295 0.0 0.0 0.00 0.00 0.00 89 1018.1
20260830100557 63 295 0.0 0.0 0.00 0.00 0.00 89 1018.1
20260830100056 63 295 0.0 0.0 0.00 0.00 0.00 89 1018.1
20260830095551 63 295 0.0 0.0 0.00 0.00 0.00 89 1018.1
20260830095048 63 295 0.0 0.0 0.00 0.00 0.00 89 1018.1
20260830094544 63 295 0.0 0.0 0.00 0.00 0.00 88 1018.1
20260830094043 63 295 0.0 0.0 0.00 0.00 0.00 88 1017.6
20260830093538 64 295 0.0 0.0 0.00 0.00 0.00 88 1018.1
20260830093035 64 295 0.0 0.0 0.00 0.00 0.00 87 1018.1
20260830092530 64 295 0.0 0.0 0.00 0.00 0.00 87 1018.1
20260830092027 63 295 0.0 0.0 0.00 0.00 0.00 87 1018.1
20260830091521 63 295 0.0 0.0 0.00 0.00 0.00 87 1018.1
20260830091020 64 295 0.0 0.0 0.00 0.00 0.00 87 1017.6
20260830090516 64 295 0.0 0.0 0.00 0.00 0.00 87 1018.1
20260830090011 64 295 0.0 0.0 0.00 0.00 0.00 86 1018.1
20260830085506 64 295 0.0 0.0 0.00 0.00 0.00 86 1018.1
20260830085002 64 295 0.0 0.0 0.00 0.00 0.00 86 1018.1
20260830084457 64 295 0.0 0.0 0.00 0.00 0.00 85 1018.1
20260830083952 64 295 0.0 0.0 0.00 0.00 0.00 85 1018.1
20260830083447 64 295 0.0 0.0 0.00 0.00 0.00 84 1017.6
20260830082947 64 295 0.0 0.0 0.00 0.00 0.00 84 1017.6
20260830082442 64 295 0.0 0.0 0.00 0.00 0.00 84 1017.3
20260830081942 65 295 0.0 0.0 0.00 0.00 0.00 84 1017.6
20260830081437 65 295 0.0 0.0 0.00 0.00 0.00 84 1017.6
20260830080932 65 295 0.0 0.0 0.00 0.00 0.00 83 1017.6
20260830080428 65 295 0.0 0.0 0.00 0.00 0.00 83 1017.6
20260830075927 65 295 0.0 0.0 0.00 0.00 0.00 83 1017.3
20260830075422 65 295 0.0 0.0 0.00 0.00 0.00 83 1017.3
20260830074917 65 295 0.0 0.0 0.00 0.00 0.00 83 1017.3
20260830074413 65 295 0.0 0.0 0.00 0.00 0.00 83 1017.3
20260830073903 65 295 0.0 0.0 0.00 0.00 0.00 82 1017.3
20260830073359 65 295 0.0 0.0 0.00 0.00 0.00 82 1017.6
20260830072854 65 295 0.0 0.0 0.00 0.00 0.00 82 1017.6
20260830072349 65 295 0.0 0.0 0.00 0.00 0.00 82 1017.6
20260830071844 66 295 0.0 0.0 0.00 0.00 0.00 82 1017.6
20260830071343 66 295 0.0 0.0 0.00 0.00 0.00 82 1017.6
20260830070841 66 295 0.0 0.0 0.00 0.00 0.00 82 1017.6
20260830070337 66 295 0.0 0.0 0.00 0.00 0.00 81 1017.6
20260830065835 66 295 0.0 0.0 0.00 0.00 0.00 81 1018.1
20260830065330 66 295 0.0 0.0 0.00 0.00 0.00 80 1018.1
20260830064829 66 295 0.0 0.0 0.00 0.00 0.00 80 1018.1
20260830064324 66 295 0.0 0.0 0.00 0.00 0.00 81 1018.1
20260830063824 66 295 0.0 0.0 0.00 0.00 0.00 80 1018.1
20260830063319 66 295 0.0 0.0 0.00 0.00 0.00 80 1018.1
20260830062814 67 295 0.0 0.0 0.00 0.00 0.00 80 1018.1
20260830062313 67 295 0.0 0.0 0.00 0.00 0.00 79 1018.1
20260830061808 68 295 0.0 0.0 0.00 0.00 0.00 77 1018.1
20260830061303 68 295 0.0 0.0 0.00 0.00 0.00 77 1018.1
20260830060800 68 295 0.0 0.0 0.00 0.00 0.00 76 1018.1
20260830060256 68 295 0.0 0.0 0.00 0.00 0.00 76 1018.1
20260830055751 68 295 0.0 0.0 0.00 0.00 0.00 75 1018.1
20260830055248 69 295 0.0 0.0 0.00 0.00 0.00 75 1018.1
20260830054747 69 295 0.0 0.0 0.00 0.00 0.00 75 1018.1
20260830054243 69 296 0.0 0.0 0.00 0.00 0.00 74 1018.1
20260830053738 69 296 0.0 0.0 0.00 0.00 0.00 74 1018.1
20260830053238 70 296 0.0 0.0 0.00 0.00 0.00 72 1018.1
20260830052737 70 296 0.0 0.0 0.00 0.00 0.00 73 1018.1
20260830052233 70 296 0.0 0.0 0.00 0.00 0.00 73 1018.1
20260830051728 71 296 0.0 0.0 0.00 0.00 0.00 73 1018.1
20260830051224 71 296 0.0 0.0 0.00 0.00 0.00 71 1018.1
20260830050722 70 296 0.0 0.0 0.00 0.00 0.00 70 1018.1
20260830050218 70 296 0.0 0.0 0.00 0.00 0.00 70 1018.1
20260830045716 70 296 0.0 0.0 0.00 0.00 0.00 71 1018.1
20260830045212 71 296 0.0 0.0 0.00 0.00 0.00 72 1018.1
20260830044710 71 296 0.0 0.0 0.00 0.00 0.00 73 1018.1
20260830044206 71 296 0.0 0.0 0.00 0.00 0.00 73 1018.1
20260830043706 71 296 0.0 0.0 0.00 0.00 0.00 71 1018.1
20260830043201 71 296 0.0 0.0 0.00 0.00 0.00 73 1018.1
20260830042658 70 295 0.0 0.0 0.00 0.00 0.00 72 1017.6
20260830042153 70 295 0.0 0.0 0.00 0.00 0.00 76 1017.6
20260830041651 69 295 0.0 0.0 0.00 0.00 0.00 78 1017.6
20260830041152 69 295 0.0 0.0 0.00 0.00 0.00 80 1018.1
20260830040647 69 295 0.0 0.0 0.00 0.00 0.00 80 1017.6
20260830040144 69 295 0.0 0.0 0.00 0.00 0.00 81 1017.6
20260830035641 69 295 0.0 0.0 0.00 0.00 0.00 81 1017.6
20260830035136 70 295 0.0 0.0 0.00 0.00 0.00 81 1018.1
20260830034631 70 295 0.0 0.0 0.00 0.00 0.00 81 1018.1
20260830034131 70 295 0.0 0.0 0.00 0.00 0.00 81 1018.1
20260830033626 70 295 0.0 0.0 0.00 0.00 0.00 80 1018.1
20260830033121 70 295 0.0 0.0 0.00 0.00 0.00 81 1018.1
20260830032616 70 295 0.0 0.0 0.00 0.00 0.00 80 1018.1
20260830032111 71 295 0.0 0.0 0.00 0.00 0.00 80 1017.6
20260830031606 71 295 0.0 0.0 0.00 0.00 0.00 79 1017.6
20260830031101 71 295 0.0 0.0 0.00 0.00 0.00 79 1017.6
20260830030556 71 295 0.0 0.0 0.00 0.00 0.00 78 1017.6
20260830030052 71 295 0.0 0.0 0.00 0.00 0.00 78 1018.1
20260830025550 72 295 0.0 0.0 0.00 0.00 0.00 78 1017.3